Content
SEND FEEDBACK

Daily
Averages
Monthly
Summary
United States of America

ST. LOUIS, MISSOURI


Home > North America > United States > Missouri
Elevation: 535 feet     Latitude: 38 45N     Longitude: 090 22W

WEATHER
 
SELECT A DAY
Number of Records: 199,721;   Date Range: 1/1/95 - 10/23/14
 
SHARE

PRINT THIS DATA

[ ← Previous Day ]
WEATHER ALMANAC - JUNE 13, 2013
[ Next Day → ]
[ °C ]   °F
Weather ElementAverageHighLow
Temperature75.2 °F82.9 °F (3:54 pm)66 °F (11:54 pm)
Dewpoint62.2 °F66.2 °F (12:12 pm)60.1 °F (4:54 am)
Humidity64.7 %84 % (10:54 pm)47 % (3:54 pm)
Barometer29.92 in29.98 in (12:12 pm)29.76 in (1:54 am)
Wind Speed7.9 mph16.1 mph (4:54 am)
Wind Gust26.5 mph (4:54 am)
Weather ElementAverage
Visibility10 mi
Wind DirectionSSW (211.2 °)

Weather ElementTotal
Precipitation---
Cooling Degree Days9.5 (Base 65)
Growing Degree Days24.5 (Base 50)
Averaged from 25 records on June 13, 2013
WEATHER CONDITIONS BREAKOUT
WIND DIRECTION BREAKOUT
WEATHER BY HOUR - JUNE 13, 2013
[ °C ]   °F
Local TimeTemperatureDewpointHumidityBarometerVisibilityWind DirectionWind SpeedGust SpeedPrecipitationEventsConditions
1:54 AM82.0 °F66.0 °F58 %29.76 in10.0 miWNW (300°)11.5 mph21.9 mphScattered Clouds
2:54 AM78.1 °F64.0 °F62 %29.77 in10.0 miWest (270°)9.2 mphMostly Cloudy
3:54 AM75.9 °F62.1 °F62 %29.79 in10.0 miWNW (290°)13.8 mphClear
4:54 AM73.0 °F60.1 °F64 %29.81 in10.0 miWNW (290°)16.1 mph26.5 mphClear
5:41 AM71.6 °F60.8 °F69 %29.87 in10.0 miWNW (300°)16.1 mph24.2 mphOvercast
5:54 AM72.0 °F60.1 °F66 %29.84 in10.0 miWest (280°)12.7 mph20.7 mphOvercast
6:54 AM70.0 °F60.1 °F71 %29.87 in10.0 miWest (280°)11.5 mphOvercast
7:54 AM70.0 °F61.0 °F73 %29.90 in10.0 miWNW (290°)11.5 mphOvercast
8:54 AM71.1 °F61.0 °F70 %29.92 in10.0 miWNW (290°)11.5 mphOvercast
9:54 AM72.0 °F63.0 °F73 %29.94 in10.0 miNW (320°)10.4 mph16.1 mphOvercast
10:54 AM73.0 °F64.0 °F73 %29.95 in10.0 miNW (320°)9.2 mphOvercast
11:54 AM75.0 °F64.0 °F69 %29.96 in10.0 miNorth (350°)8.1 mphOvercast
12:12 PM77.0 °F66.2 °F69 %29.98 in10.0 miNNE (30°)5.8 mphOvercast
12:54 PM77.0 °F64.0 °F64 %29.97 in10.0 miNorth (10°)8.1 mphOvercast
1:54 PM80.1 °F63.0 °F56 %29.98 in10.0 miNorth (360°)6.9 mphScattered Clouds
2:54 PM81.0 °F63.0 °F54 %29.96 in10.0 miNorth (10°)5.8 mphPartly Cloudy
3:54 PM82.9 °F61.0 °F47 %29.94 in10.0 miNorth (10°)6.9 mphClear
4:54 PM82.9 °F61.0 °F47 %29.95 in10.0 miNNW (330°)5.8 mphScattered Clouds
5:54 PM82.9 °F61.0 °F47 %29.96 in10.0 miNNW (330°)5.8 mphScattered Clouds
6:54 PM82.0 °F60.1 °F47 %29.97 in10.0 miNNW (330°)5.8 mphClear
7:54 PM78.1 °F61.0 °F56 %29.98 in10.0 miWNW (290°)4.6 mphClear
8:54 PM71.1 °F63.0 °F75 %29.98 in10.0 miCalmClear
9:54 PM69.1 °F62.1 °F78 %29.96 in10.0 miCalmClear
10:54 PM66.9 °F62.1 °F84 %29.94 in10.0 miCalmClear
11:54 PM66.0 °F61.0 °F84 %29.93 in10.0 miCalmClear
Hourly data recorded from KSUS, located miles away from St. Louis, Missouri







STORIES FROM OUR PARTNERS